Location: ???? ??????? ????
(31.2176°N, 31.6797°E)
Time: 18:31:22
(UTC+00:00)

Cosmos 2315 Rocket - Pass Details

Date: 29 October 2020
Orbit: 967 x 1001 km, 82.9° (Epoch: 30 November)

Event Time Altitude Azimuth Distance (km) Brightness Sun altitude
Rises 17:12:33 0° 194° (SSW) 3,654 7.2 -27.4°
Reaches altitude 10° 17:15:06 10° 198° (SSW) 2,706 6.5 -27.9°
Maximum altitude 17:21:12 60° 277° (W) 1,098 4.4 -29.2°
Drops below altitude 10° 17:27:18 10° 357° (N) 2,710 6.4 -30.5°
Sets 17:29:52 0° 1° (N) 3,660 7.0 -31.1°
